CW1490 Weather Reports


time (UTC)temp
F
wind
direction
speed
knots
gust
knots
rain 1hr
in
rain 24hr
in
rain mn
in
humidity
%
barometer
mb
20260905215506 71 332 1.7 5.2 0.00 0.00 0.00 71 1012.0
20260905215009 70 26 1.7 7.8 0.00 0.00 0.00 71 1011.9
20260905214540 70 30 1.7 7.8 0.00 0.00 0.00 70 1011.8
20260905214010 70 26 1.7 9.6 0.00 0.00 0.00 71 1011.7
20260905213515 71 19 2.6 9.6 0.00 0.00 0.00 71 1011.7
20260905213026 71 31 2.6 7.8 0.00 0.00 0.00 70 1011.6
20260905212517 71 22 1.7 7.8 0.00 0.00 0.00 70 1011.5
20260905212013 71 9 1.7 7.8 0.00 0.00 0.00 70 1011.4
20260905211535 71 9 3.5 13.0 0.00 0.00 0.00 68 1011.3
20260905211014 72 57 7.0 13.0 0.00 0.00 0.00 67 1011.3
20260905210514 73 51 4.3 14.8 0.00 0.00 0.00 66 1011.3
20260905210044 74 44 4.3 15.6 0.00 0.00 0.00 65 1011.2
20260905205516 75 74 7.0 15.6 0.00 0.00 0.00 63 1011.1
20260905205017 75 67 7.0 13.9 0.00 0.00 0.00 63 1011.1
20260905204518 74 63 3.5 9.6 0.00 0.00 0.00 65 1011.0
20260905204011 74 44 2.6 9.6 0.00 0.00 0.00 65 1011.0
20260905203517 74 311 2.6 11.3 0.00 0.00 0.00 64 1010.9
20260905203026 74 34 4.3 14.8 0.00 0.00 0.00 62 1010.8
20260905202518 74 34 6.1 14.8 0.00 0.00 0.00 61 1010.7
20260905202013 74 25 8.7 13.9 0.00 0.00 0.00 61 1010.7
20260905201532 73 20 7.0 13.9 0.00 0.00 0.00 62 1010.7
20260905201014 74 31 7.0 17.4 0.00 0.00 0.00 62 1010.7
20260905200515 75 32 7.0 17.4 0.00 0.00 0.00 61 1010.7
20260905200046 75 48 7.0 13.0 0.00 0.00 0.00 60 1010.6
20260905195518 76 347 6.1 18.2 0.00 0.00 0.00 59 1010.6
20260905195017 76 53 11.3 18.2 0.00 0.00 0.00 60 1010.6
20260905194534 76 348 7.0 18.2 0.00 0.00 0.00 62 1010.7
20260905194015 76 323 9.6 17.4 0.00 0.00 0.00 61 1010.6
20260905193519 75 11 7.0 17.4 0.00 0.00 0.00 62 1010.6
20260905193020 77 48 9.6 17.4 0.00 0.00 0.00 61 1010.7
20260905192510 77 38 9.6 18.2 0.00 0.00 0.00 61 1010.7
20260905192018 77 36 9.6 18.2 0.00 0.00 0.00 60 1010.7
20260905191534 77 40 11.3 18.2 0.00 0.00 0.00 60 1010.7
20260905191015 76 54 7.8 14.8 0.00 0.00 0.00 62 1010.7
20260905190516 76 34 7.8 14.8 0.00 0.00 0.00 63 1010.8
20260905190029 75 56 6.1 14.8 0.00 0.00 0.00 65 1010.8
20260905185504 75 56 6.1 13.0 0.00 0.00 0.00 64 1010.8
20260905185004 75 79 6.1 17.4 0.00 0.00 0.00 63 1010.8
20260905184522 75 347 7.8 17.4 0.00 0.00 0.00 62 1010.8
20260905184007 75 340 4.3 15.6 0.00 0.00 0.00 64 1010.8
20260905183506 76 34 5.2 15.6 0.00 0.00 0.00 62 1010.9
20260905183026 77 20 8.7 20.0 0.00 0.00 0.00 61 1010.7
20260905182504 77 337 9.6 20.0 0.00 0.00 0.00 59 1010.7
20260905182003 76 24 11.3 16.5 0.00 0.00 0.00 59 1010.8
20260905181505 77 38 5.2 10.4 0.00 0.00 0.00 61 1010.8
20260905181011 75 16 3.5 13.9 0.00 0.00 0.00 65 1010.8
20260905180504 74 77 7.0 14.8 0.00 0.00 0.00 64 1010.9
20260905180037 73 340 7.0 15.6 0.00 0.00 0.00 64 1010.9
20260905175503 74 49 6.1 15.6 0.00 0.00 0.00 62 1010.8
20260905175003 75 346 9.6 15.6 0.00 0.00 0.00 61 1010.8
20260905174531 76 59 10.4 16.5 0.00 0.00 0.00 61 1010.8
20260905174007 77 13 10.4 16.5 0.00 0.00 0.00 56 1010.7
20260905173509 77 38 5.2 16.5 0.00 0.00 0.00 59 1010.8
20260905173017 77 66 8.7 16.5 0.00 0.00 0.00 57 1010.8
20260905172506 77 311 6.1 13.9 0.00 0.00 0.00 58 1010.7
20260905172008 76 47 6.1 16.5 0.00 0.00 0.00 60 1010.8
20260905171524 75 22 7.8 25.2 0.00 0.00 0.00 63 1010.8
20260905171003 76 51 11.3 26.1 0.00 0.00 0.00 59 1010.8
20260905170512 76 34 10.4 22.6 0.00 0.00 0.00 59 1010.8
20260905170028 75 28 10.4 17.4 0.00 0.00 0.00 59 1010.8
20260905165513 75 45 12.2 19.1 0.00 0.00 0.00 61 1010.9
20260905165005 76 348 10.4 19.1 0.00 0.00 0.00 59 1010.8
20260905164507 75 51 3.5 17.4 0.00 0.00 0.00 64 1010.8
20260905164003 73 25 7.8 17.4 0.00 0.00 0.00 64 1010.9
20260905163506 74 40 8.7 16.5 0.00 0.00 0.00 62 1010.9
20260905163014 75 33 7.8 16.5 0.00 0.00 0.00 63 1010.9
20260905162518 75 61 11.3 16.5 0.00 0.00 0.00 63 1010.9
20260905162007 76 83 9.6 15.6 0.00 0.00 0.00 63 1010.9
20260905161517 76 39 7.0 15.6 0.00 0.00 0.00 63 1010.9
20260905161013 75 18 8.7 19.1 0.00 0.00 0.00 64 1011.0
20260905160511 75 66 12.2 19.1 0.00 0.00 0.00 63 1011.0
20260905160027 74 41 8.7 18.2 0.00 0.00 0.00 66 1011.1
20260905155518 72 47 8.7 13.9 0.00 0.00 0.00 69 1011.3
20260905155012 71 30 5.2 14.8 0.00 0.00 0.00 69 1011.3
20260905154506 72 64 5.2 14.8 0.00 0.00 0.00 68 1011.3
20260905154005 72 36 4.3 11.3 0.00 0.00 0.00 68 1011.4
20260905153503 71 33 5.2 14.8 0.00 0.00 0.00 73 1011.5
20260905153014 70 49 5.2 14.8 0.00 0.00 0.00 69 1011.5
20260905152504 71 46 6.1 16.5 0.00 0.00 0.00 69 1011.5
20260905152016 71 31 7.8 16.5 0.00 0.00 0.00 70 1011.5
20260905151517 71 64 7.8 13.9 0.00 0.00 0.00 69 1011.5
20260905151008 71 67 7.8 13.9 0.00 0.00 0.00 71 1011.5
20260905150514 72 31 8.7 14.8 0.00 0.00 0.00 70 1011.5
20260905150026 72 63 8.7 15.6 0.00 0.00 0.00 72 1011.5
20260905145512 72 44 7.0 15.6 0.00 0.00 0.00 71 1011.5
20260905145010 73 21 7.8 16.5 0.00 0.00 0.00 73 1011.5
20260905144528 72 79 6.1 16.5 0.00 0.00 0.00 74 1011.5
20260905144012 72 47 11.3 15.6 0.00 0.00 0.00 73 1011.4
20260905143503 71 15 6.1 13.0 0.00 0.00 0.00 76 1011.4
20260905143009 70 38 7.8 13.0 0.00 0.00 0.00 77 1011.5
20260905142506 69 57 6.1 13.0 0.00 0.00 0.00 78 1011.5
20260905142016 69 55 4.3 14.8 0.00 0.00 0.00 79 1011.6
20260905141514 70 50 10.4 14.8 0.00 0.00 0.00 78 1011.6
20260905141009 69 57 4.3 8.7 0.00 0.00 0.00 82 1011.7
20260905140508 68 71 3.5 6.1 0.00 0.00 0.00 82 1011.8
20260905140018 67 79 2.6 6.1 0.00 0.00 0.00 84 1011.8
20260905135509 66 57 3.5 7.0 0.00 0.00 0.00 82 1011.7
20260905135011 66 165 1.7 7.0 0.00 0.00 0.00 84 1011.7
20260905134539 65 46 2.6 5.2 0.00 0.00 0.00 87 1011.7
20260905134014 65 41 1.7 3.5 0.00 0.00 0.00 91 1011.8
20260905133515 64 19 0.9 3.5 0.00 0.00 0.00 93 1011.8
20260905133035 63 56 2.6 3.5 0.00 0.00 0.00 94 1011.8
20260905132517 62 83 0.9 3.5 0.00 0.00 0.00 94 1011.9
20260905132016 62 19 2.6 3.5 0.00 0.00 0.00 95 1011.8
20260905131530 62 119 0.9 4.3 0.00 0.00 0.00 95 1011.8
20260905131020 61 41 1.7 4.3 0.00 0.00 0.00 95 1011.8
20260905130507 61 338 1.7 5.2 0.00 0.00 0.00 95 1011.9
20260905130014 60 28 2.6 5.2 0.00 0.00 0.00 95 1011.8
20260905125506 60 34 2.6 5.2 0.00 0.00 0.00 95 1011.8
20260905125008 60 32 2.6 4.3 0.00 0.00 0.00 95 1011.8
20260905124524 60 41 1.7 4.3 0.00 0.00 0.00 95 1011.8
20260905124013 60 61 1.7 3.5 0.00 0.00 0.00 95 1011.7
20260905123516 60 59 0.9 3.5 0.00 0.00 0.00 95 1011.7
20260905123053 60 51 1.7 3.5 0.00 0.00 0.00 95 1011.6
20260905122518 60 63 2.6 3.5 0.00 0.00 0.00 95 1011.6
20260905122014 59 26 1.7 3.5 0.00 0.00 0.00 95 1011.5
20260905121535 59 51 0.9 4.3 0.00 0.00 0.00 95 1011.5
20260905121014 59 51 1.7 4.3 0.00 0.00 0.00 95 1011.5
20260905120514 59 71 2.6 4.3 0.00 0.00 0.00 95 1011.5
20260905120012 59 51 2.6 7.0 0.00 0.00 0.00 95 1011.4
20260905115511 59 71 2.6 7.0 0.00 0.00 0.00 95 1011.4
20260905115008 59 49 2.6 4.3 0.00 0.00 0.00 95 1011.3
20260905114521 59 22 2.6 4.3 0.00 0.00 0.00 95 1011.3
20260905114011 59 41 1.7 6.1 0.00 0.00 0.00 95 1011.2
20260905113511 58 38 2.6 6.1 0.00 0.00 0.00 95 1011.3
20260905113030 58 16 2.6 4.3 0.00 0.00 0.00 95 1011.3
20260905112514 58 17 2.6 4.3 0.00 0.00 0.00 95 1011.2
20260905112014 58 51 0.9 3.5 0.00 0.00 0.00 95 1011.3
20260905111530 58 336 1.7 4.3 0.00 0.00 0.00 94 1011.2
20260905111015 58 47 2.6 4.3 0.00 0.00 0.00 95 1011.2
20260905110517 58 9 0.9 2.6 0.00 0.00 0.00 95 1011.1
20260905110034 58 330 0.9 2.6 0.00 0.00 0.00 94 1011.1
20260905105518 58 9 0.9 2.6 0.00 0.00 0.00 95 1011.1
20260905105013 58 319 0.9 3.5 0.00 0.00 0.00 95 1011.1
20260905104512 58 9 0.9 3.5 0.00 0.00 0.00 95 1010.9
20260905104008 58 265 0.9 3.5 0.00 0.00 0.00 95 1010.9
20260905103509 58 9 0.0 4.3 0.00 0.00 0.00 95 1010.8
20260905103023 58 26 1.7 4.3 0.00 0.00 0.00 95 1010.7
20260905102510 58 80 2.6 4.3 0.00 0.00 0.00 94 1010.6
20260905102011 58 34 1.7 3.5 0.00 0.00 0.00 94 1010.6
20260905101525 58 65 1.7 3.5 0.00 0.00 0.00 94 1010.7
20260905101013 58 9 0.0 1.7 0.00 0.00 0.00 94 1010.6
20260905100514 58 265 0.9 1.7 0.00 0.00 0.00 94 1010.6
20260905100044 58 9 0.0 3.5 0.00 0.00 0.00 94 1010.6
20260905095504 58 9 0.0 3.5 0.00 0.00 0.00 94 1010.6
20260905095005 58 71 1.7 2.6 0.00 0.00 0.00 94 1010.4
20260905094533 58 44 0.0 2.6 0.00 0.00 0.00 94 1010.4
20260905094014 58 273 0.9 2.6 0.00 0.00 0.00 94 1010.4
20260905093518 58 265 0.0 2.6 0.00 0.00 0.00 94 1010.5
20260905093018 58 9 0.9 2.6 0.00 0.00 0.00 94 1010.5
20260905092511 58 153 0.0 1.7 0.00 0.00 0.00 94 1010.5
20260905092010 59 243 0.9 1.7 0.00 0.00 0.00 94 1010.4
20260905091523 59 67 0.0 2.6 0.00 0.00 0.00 94 1010.4
20260905091013 59 67 0.0 2.6 0.00 0.00 0.00 94 1010.4
20260905090512 59 41 1.7 2.6 0.00 0.00 0.00 94 1010.3
20260905090030 59 309 0.9 2.6 0.00 0.00 0.00 94 1010.4
20260905085515 59 51 0.0 3.5 0.00 0.00 0.00 94 1010.3
20260905085018 59 319 0.9 6.1 0.00 0.00 0.00 94 1010.3
20260905084531 59 341 1.7 6.1 0.00 0.00 0.00 95 1010.4
20260905084015 59 55 1.7 4.3 0.00 0.00 0.00 95 1010.4
20260905083508 59 178 0.0 2.6 0.00 0.00 0.00 94 1010.4
20260905083016 59 9 0.9 3.5 0.00 0.00 0.00 94 1010.4
20260905082508 59 9 0.9 3.5 0.00 0.00 0.00 94 1010.4
20260905082008 59 9 1.7 2.6 0.00 0.00 0.00 94 1010.4
20260905081523 59 9 0.0 2.6 0.00 0.00 0.00 94 1010.4
20260905081012 59 325 0.9 2.6 0.00 0.00 0.00 94 1010.4
20260905080512 59 298 0.0 2.6 0.00 0.00 0.00 94 1010.4
20260905075515 59 137 0.9 4.3 0.00 0.00 0.00 94 1010.4
20260905075015 59 232 3.5 4.3 0.00 0.00 0.00 94 1010.4
20260905074531 59 255 1.7 3.5 0.00 0.00 0.00 95 1010.4
20260905074016 59 250 0.0 3.5 0.00 0.00 0.00 95 1010.5
20260905073517 59 330 0.0 2.6 0.00 0.00 0.00 94 1010.5
20260905073032 59 9 0.9 2.6 0.00 0.00 0.00 94 1010.5
20260905072518 59 9 0.9 2.6 0.00 0.00 0.00 94 1010.6
20260905072009 59 26 1.7 2.6 0.00 0.00 0.00 94 1010.6
20260905071521 59 57 0.9 3.5 0.00 0.00 0.00 94 1010.6
20260905071007 59 67 1.7 3.5 0.00 0.00 0.00 94 1010.7
20260905070513 59 9 0.0 2.6 0.00 0.00 0.00 94 1010.7
20260905070031 59 265 0.9 2.6 0.00 0.00 0.00 94 1010.6
20260905065504 59 221 0.9 2.6 0.00 0.00 0.00 94 1010.7
20260905065006 59 51 0.0 2.6 0.00 0.00 0.00 94 1010.7
20260905064504 59 51 0.0 2.6 0.00 0.00 0.00 94 1010.7
20260905064004 59 279 0.9 2.6 0.00 0.00 0.00 94 1010.7
20260905063507 59 238 0.0 1.7 0.00 0.00 0.00 94 1010.8
20260905063032 60 265 0.0 1.7 0.00 0.00 0.00 94 1010.9
20260905062506 60 51 0.0 1.7 0.00 0.00 0.00 94 1010.9
20260905062016 60 250 0.0 2.6 0.00 0.00 0.00 94 1010.9
20260905061515 60 238 0.9 3.5 0.00 0.00 0.00 94 1010.9
20260905061012 60 255 0.9 3.5 0.00 0.00 0.00 94 1011.0
20260905060518 60 250 0.9 3.5 0.00 0.00 0.00 94 1010.9
20260905060045 61 319 1.7 4.3 0.00 0.00 0.00 94 1011.0
20260905055519 61 178 0.9 4.3 0.00 0.00 0.00 94 1010.9
20260905055016 61 207 1.7 9.6 0.00 0.00 0.00 94 1010.9
20260905054531 61 232 4.3 10.4 0.00 0.00 0.00 94 1010.8
20260905054004 61 194 5.2 10.4 0.00 0.00 0.00 94 1010.8
20260905053504 61 93 0.9 6.1 0.00 0.00 0.00 94 1010.8
20260905053006 61 221 1.7 6.1 0.00 0.00 0.00 94 1010.9
20260905052505 62 212 1.7 5.2 0.00 0.00 0.00 94 1011.0
20260905052007 61 178 1.7 5.2 0.00 0.00 0.00 94 1011.0
20260905051514 62 198 2.6 5.2 0.00 0.00 0.00 94 1011.0
20260905051014 61 209 1.7 5.2 0.00 0.00 0.00 94 1011.2
20260905050506 61 210 1.7 4.3 0.00 0.00 0.00 94 1011.2
20260905050019 61 165 0.9 5.2 0.00 0.00 0.00 94 1011.2
20260905045510 61 178 2.6 5.2 0.00 0.00 0.00 94 1011.3
20260905045012 61 153 1.7 3.5 0.00 0.00 0.00 94 1011.1
20260905044532 61 214 2.6 3.5 0.00 0.00 0.00 94 1011.1
20260905044014 61 227 1.7 3.5 0.00 0.00 0.00 94 1011.1
20260905043513 61 298 0.0 1.7 0.00 0.00 0.00 94 1011.3
20260905043028 61 51 0.0 1.7 0.00 0.00 0.00 94 1011.1
20260905042504 61 221 0.0 2.6 0.00 0.00 0.00 94 1011.1
20260905042005 61 178 0.0 2.6 0.00 0.00 0.00 94 1011.0
20260905041509 61 238 0.9 1.7 0.00 0.00 0.00 94 1011.0
20260905041016 61 51 0.9 1.7 0.00 0.00 0.00 94 1010.9
20260905040506 61 41 0.0 1.7 0.00 0.00 0.00 93 1010.9
20260905040015 61 309 0.0 2.6 0.00 0.00 0.00 93 1011.0
20260905035509 61 265 0.9 2.6 0.00 0.00 0.00 94 1011.0
20260905035015 61 221 0.9 2.6 0.00 0.00 0.00 93 1011.1
20260905034522 61 265 0.0 3.5 0.00 0.00 0.00 93 1011.1
20260905034009 61 201 1.7 3.5 0.00 0.00 0.00 93 1011.1
20260905033514 61 200 0.9 2.6 0.00 0.00 0.00 93 1011.1
20260905033026 61 190 0.9 2.6 0.00 0.00 0.00 93 1011.1
20260905032515 61 205 0.9 2.6 0.00 0.00 0.00 93 1011.1
20260905032014 61 200 0.9 2.6 0.00 0.00 0.00 93 1011.1
20260905031537 61 257 0.9 2.6 0.00 0.00 0.00 93 1011.1
20260905031003 61 238 0.9 1.7 0.00 0.00 0.00 93 1011.0
20260905030506 61 232 0.0 1.7 0.00 0.00 0.00 93 1010.9
20260905030014 62 282 0.9 2.6 0.00 0.00 0.00 93 1011.0
20260905025506 62 9 0.9 2.6 0.00 0.00 0.00 93 1011.0
20260905025019 62 22 0.9 1.7 0.00 0.00 0.00 93 1011.0
20260905024519 62 137 0.0 2.6 0.00 0.00 0.00 92 1011.0
20260905024019 62 238 0.9 2.6 0.00 0.00 0.00 92 1011.0
20260905023518 62 221 0.9 2.6 0.00 0.00 0.00 92 1011.1
20260905023024 62 265 0.9 2.6 0.00 0.00 0.00 92 1011.1
20260905022517 63 265 0.9 2.6 0.00 0.00 0.00 92 1011.1
20260905022021 63 221 0.9 2.6 0.00 0.00 0.00 92 1011.2
20260905021543 63 212 0.9 2.6 0.00 0.00 0.00 92 1011.2
20260905021015 63 205 0.9 1.7 0.00 0.00 0.00 92 1011.2
20260905020517 63 178 0.9 2.6 0.00 0.00 0.00 92 1011.2
20260905020031 63 279 0.0 2.6 0.00 0.00 0.00 91 1011.3
20260905015516 63 309 0.0 1.7 0.00 0.00 0.00 91 1011.3
20260905015012 63 282 0.0 1.7 0.00 0.00 0.00 91 1011.2
20260905014514 63 334 0.0 2.6 0.00 0.00 0.00 91 1011.3
20260905014008 63 334 0.0 3.5 0.00 0.00 0.00 91 1011.3
20260905013511 64 221 0.0 3.5 0.00 0.00 0.00 90 1011.3
20260905013018 64 93 0.9 2.6 0.00 0.00 0.00 90 1011.3
20260905012512 64 153 0.9 3.5 0.00 0.00 0.00 90 1011.3
20260905012012 64 229 1.7 3.5 0.00 0.00 0.00 90 1011.3
20260905011525 65 257 1.7 3.5 0.00 0.00 0.00 90 1011.3
20260905011012 65 298 0.9 2.6 0.00 0.00 0.00 90 1011.2
20260905010515 65 250 0.9 2.6 0.00 0.00 0.00 90 1011.2
20260905010032 65 178 0.0 2.6 0.00 0.00 0.00 89 1011.2
20260905005516 65 227 0.9 2.6 0.00 0.00 0.00 88 1011.2
20260905005016 65 51 0.0 3.5 0.00 0.00 0.00 88 1011.1
20260905004535 65 325 1.7 3.5 0.00 0.00 0.00 88 1011.1
20260905004017 66 61 0.9 2.6 0.00 0.00 0.00 88 1011.1
20260905003513 66 80 0.9 2.6 0.00 0.00 0.00 87 1011.1
20260905003004 66 34 0.9 2.6 0.00 0.00 0.00 86 1011.1
20260905002503 67 19 0.9 1.7 0.00 0.00 0.00 86 1011.2
20260905002003 67 325 0.0 2.6 0.00 0.00 0.00 86 1011.2
20260905001503 68 309 0.0 2.6 0.00 0.00 0.00 85 1011.1
20260905001003 68 282 0.9 3.5 0.00 0.00 0.00 85 1011.0
20260905000504 68 338 1.7 3.5 0.00 0.00 0.00 85 1011.0
20260905000006 68 51 0.0 3.5 0.00 0.00 0.00 84 1010.9
20260904235503 68 51 0.9 4.3 0.00 0.00 0.00 83 1010.9
20260904235002 69 44 0.9 4.3 0.00 0.00 0.00 84 1010.8
20260904234506 68 26 1.7 4.3 0.00 0.00 0.00 85 1010.7
20260904234003 69 65 1.7 3.5 0.00 0.00 0.00 85 1010.7
20260904233503 69 61 0.9 2.6 0.00 0.00 0.00 85 1010.6
20260904233011 69 9 0.0 2.6 0.00 0.00 0.00 84 1010.5
20260904232505 70 83 0.0 1.7 0.00 0.00 0.00 83 1010.4
20260904232003 71 232 0.9 1.7 0.00 0.00 0.00 82 1010.4
20260904231510 70 247 0.0 1.7 0.00 0.00 0.00 77 1010.5
20260904231004 71 221 0.0 3.5 0.00 0.00 0.00 77 1010.4
20260904230504 71 247 0.0 3.5 0.00 0.00 0.00 77 1010.4
20260904230005 71 342 0.9 2.6 0.00 0.00 0.00 77 1010.4
20260904225505 71 254 0.9 2.6 0.00 0.00 0.00 78 1010.4
20260904225001 72 291 0.9 3.5 0.00 0.00 0.00 77 1010.3
20260904224507 72 309 1.7 3.5 0.00 0.00 0.00 76 1010.2
20260904224002 73 313 1.7 3.5 0.00 0.00 0.00 75 1010.3
20260904223503 73 313 1.7 3.5 0.00 0.00 0.00 75 1010.2
20260904223009 73 334 1.7 3.5 0.00 0.00 0.00 75 1010.2
20260904222503 73 338 1.7 6.1 0.00 0.00 0.00 75 1010.2
20260904222003 73 43 2.6 6.1 0.00 0.00 0.00 73 1010.1
20260904221507 73 9 1.7 5.2 0.00 0.00 0.00 73 1010.1
20260904221003 74 9 1.7 3.5 0.00 0.00 0.00 72 1010.1
20260904220504 74 338 0.9 3.5 0.00 0.00 0.00 72 1010.1
20260904220013 74 325 0.9 4.3 0.00 0.00 0.00 71 1010.1